Wind_Speed
18 18 19 21 22 16 7 7 6 6 10 12 16 12 17 5 8 10 8 7 12 11 14 18 22 19 18 17 19 24 20 17 16 20 18 18 21 18 20 13 10 7 16 4
17 17 18 19 20 19 13 7 6 5 12 8 11 14 7 8 10 11 7 9 7 4 12 9 15 18 10 9 13 11 17 16 16 18 18 17 13 20 21 18 6 6 8 9
18 17 16 16 17 15 10 6 4 9 15 20 13 13 11 14 9 12 6 10 4 10 12 9 7 9 6 5 13 3 5 17 17 16 17 16 18 20 22 19 10 9 24 7
17 17 17 16 14 12 6 5 2 5 4 13 13 16 9 13 10 13 8 10 12 13 13 15 14 13 9 8 7 5 11 18 19 19 21 17 13 16 18 22 14 17 2 7
17 16 15 15 13 8 3 7 6 6 16 8 9 11 13 15 12 2 13 14 14 8 14 11 11 11 10 11 12 16 18 17 18 20 21 19 16 17 16 21 16 15 16 11
16 15 14 14 13 9 4 7 6 7 6 11 10 11 13 15 12 6 11 10 10 12 1 6 9 10 11 4 9 15 17 15 17 16 15 15 19 20 17 17 17 15 17 13
15 14 12 12 11 9 6 7 6 9 10 4 9 5 6 7 6 11 5 7 10 6 7 9 11 11 11 10 11 13 9 15 13 11 16 21 13 15 19 19 19 18 18 11
14 13 11 9 8 7 6 7 4 7 8 7 7 8 10 8 8 11 10 5 6 8 9 9 13 13 15 16 15 15 13 12 11 13 13 15 9 16 15 15 15 21 17 15
12 11 10 8 6 5 7 6 5 7 8 2 6 7 8 10 10 11 11 8 8 8 7 11 18 16 17 18 17 20 17 15 12 9 16 19 13 16 12 7 14 15 19 18
13 11 9 8 5 4 5 5 8 4 11 5 4 6 7 3 9 9 3 5 9 12 9 12 15 17 18 19 21 12 15 15 17 15 14 13 11 13 4 12 2 7 4 6
12 10 8 7 5 3 4 3 6 6 8 10 5 7 9 8 8 8 5 3 11 8 11 13 12 13 16 18 18 18 16 17 16 15 19 22 18 11 11 5 5 4 5 7
10 11 8 7 6 4 2 3 8 8 8 11 9 11 11 11 11 12 9 12 9 4 7 10 8 13 9 18 16 21 15 14 13 17 14 21 13 19 6 5 7 7 6 7
8 10 8 6 5 5 3 5 7 8 8 15 11 5 4 8 16 11 13 10 10 7 10 12 7 8 7 11 14 16 19 23 6 11 13 1 7 5 5 6 5 4 5 7
8 8 7 5 5 5 3 5 5 5 6 7 5 2 1 2 5 13 17 18 10 11 10 13 8 6 9 11 13 13 12 9 17 11 19 9 12 7 6 3 4 3 3 4
7 9 6 5 5 4 4 5 6 5 2 6 10 13 9 9 10 11 11 14 16 15 13 9 9 14 13 10 12 13 15 14 9 9 18 14 10 11 13 4 2 2 3 3
8 7 6 5 4 3 3 2 3 3 2 4 3 4 7 6 6 9 11 15 16 17 16 12 17 20 11 8 13 19 27 25 20 19 24 24 13 7 9 10 11 11 11 9
8 6 6 6 5 3 7 1 5 4 3 1 5 4 4 3 5 6 8 11 12 14 17 18 17 16 12 12 18 23 19 14 19 24 26 31 26 23 16 20 19 18 16 17
8 6 5 5 6 6 4 7 10 6 3 2 3 4 3 2 1 2 5 8 11 7 15 12 13 17 19 11 13 17 24 31 27 25 24 26 29 31 31 31 30 29 27 23
3 3 5 6 4 4 3 3 7 8 4 2 5 3 1 4 2 1 3 3 3 7 6 14 9 10 11 10 14 16 16 17 18 19 21 23 30 33 29 28 29 31 32 29
3 2 3 4 4 5 3 2 3 4 4 4 4 7 3 1 4 4 2 2 2 2 4 6 5 15 32 31 25 22 22 21 20 22 24 24 28 27 27 31 32 31 32 29
1 3 1 1 4 2 3 4 5 5 4 6 7 9 5 4 1 1 3 1 2 3 3 4 4 7 15 20 23 13 8 13 20 26 30 32 32 31 30 30 31 31 33 33
2 1 2 2 3 4 4 3 3 4 3 7 3 2 4 4 4 3 3 2 2 5 9 3 4 4 14 15 15 7 17 25 33 33 34 34 39 37 35 34 34 33 30 29
2 2 3 3 3 3 4 5 3 3 5 5 4 3 4 4 6 3 2 4 5 1 3 4 7 8 7 15 16 27 31 37 31 34 36 37 41 41 43 43 39 36 34 31
2 3 3 4 4 4 5 2 2 2 5 4 5 4 6 5 4 2 4 4 4 4 4 6 6 3 7 20 29 36 41 36 36 36 37 37 40 42 40 42 41 38 38 35
3 3 3 5 3 2 3 4 7 5 4 4 5 7 7 4 3 4 4 4 5 6 6 3 7 16 24 33 38 43 41 40 38 34 35 35 36 39 39 40 42 40 38 36
2 4 4 5 5 6 5 6 7 5 6 7 6 4 3 5 3 5 6 4 5 4 7 20 28 31 30 40 45 47 45 44 42 34 36 34 34 35 35 34 39 40 40 39
3 5 7 8 10 9 12 9 10 7 3 2 3 4 6 3 4 4 4 5 10 20 29 31 31 33 46 49 48 50 50 43 37 38 34 33 34 31 33 37 39 40 39 39
Wind_Direction
345 347 348 348 349 358 1 257 229 175 173 211 224 235 252 19 256 214 259 273 295 266 247 200 225 212 212 198 245 201 220 240 241 246 194 212 261 249 223 238 254 2 316 117
345 347 352 352 355 356 357 276 272 196 192 238 228 229 249 238 248 236 230 239 239 243 284 235 222 223 75 156 219 239 217 229 250 225 212 211 248 240 260 260 110 93 287 292
345 351 355 357 356 354 344 275 231 190 214 248 285 277 209 216 219 278 251 283 266 238 239 242 233 230 119 194 212 1 286 242 226 245 231 202 200 236 236 254 234 231 217 195
346 349 353 356 359 359 1 245 335 6 198 225 235 262 276 234 209 227 222 238 251 236 234 215 232 222 142 214 193 237 230 236 243 248 265 266 231 203 231 224 239 245 152 289
348 349 354 359 5 33 22 316 335 328 275 283 266 251 244 249 248 247 225 238 232 240 255 324 266 208 192 190 186 216 221 246 255 252 246 255 250 261 211 228 243 258 279 289
349 350 358 4 13 43 355 337 293 281 275 260 246 253 240 254 260 128 274 323 278 231 84 360 346 341 321 5 226 210 222 225 236 236 239 251 241 245 244 251 225 221 254 249
346 345 352 3 15 23 21 335 313 278 267 218 271 324 292 271 273 272 228 281 258 31 323 298 258 252 243 237 234 260 224 244 247 237 235 237 237 235 223 248 251 239 245 246
335 339 343 357 13 24 47 346 335 300 278 311 300 258 263 251 249 251 268 214 303 309 286 261 238 223 223 220 225 231 229 256 237 246 242 258 224 238 245 220 228 239 245 222
332 337 334 343 8 34 62 341 347 293 292 304 7 302 271 274 245 225 232 243 277 286 265 238 240 230 224 221 216 218 234 221 253 233 250 240 229 238 227 272 242 243 235 238
329 332 326 326 352 32 68 334 357 305 285 289 319 293 320 293 289 285 294 199 260 236 247 242 235 235 247 230 224 190 219 225 219 230 246 248 260 289 154 225 260 45 295 269
321 321 314 313 321 10 76 298 354 353 294 293 300 271 278 264 252 267 68 258 228 243 233 247 238 243 241 244 245 227 200 222 225 229 238 237 252 310 212 55 73 33 44 29
312 319 307 306 303 317 54 307 319 322 270 279 286 265 253 250 266 293 278 280 314 295 258 237 259 248 235 252 229 241 253 223 232 231 229 225 262 262 61 18 90 54 43 31
308 310 298 293 282 295 319 310 317 335 292 284 235 243 233 256 238 235 264 252 269 286 303 312 283 254 290 241 244 257 227 248 268 278 267 252 194 107 95 93 99 85 45 25
297 313 298 279 275 292 305 300 301 319 303 285 131 47 192 245 254 233 234 259 283 267 283 263 273 260 235 265 279 271 254 288 229 236 265 333 188 167 165 129 93 105 52 28
287 307 290 271 280 310 309 281 274 258 261 315 325 300 271 269 257 234 244 248 247 254 242 241 251 259 282 263 267 266 266 260 248 240 237 241 247 213 179 210 239 303 299 329
285 296 280 270 281 310 295 247 186 215 217 307 295 300 274 268 261 247 239 228 235 236 253 254 256 257 272 264 253 252 246 255 259 261 268 276 291 264 192 243 265 277 279 278
287 278 269 267 279 268 262 336 157 186 294 256 281 254 145 239 268 240 217 212 225 233 242 247 259 260 238 261 262 270 278 286 254 247 253 262 258 257 247 255 261 267 271 272
293 271 265 279 283 288 270 245 268 230 239 237 279 275 194 174 236 241 222 216 216 242 250 245 246 247 244 255 260 258 255 255 260 263 260 261 260 257 255 257 263 263 262 262
299 270 265 283 252 231 225 259 207 195 238 253 234 263 358 163 208 113 223 309 248 262 256 252 265 244 229 231 232 244 265 272 277 274 271 263 258 257 257 258 257 260 259 259
285 249 194 233 194 196 231 236 198 208 213 228 258 260 260 154 195 206 215 177 261 262 245 286 257 251 250 254 253 254 265 268 271 274 272 269 265 259 256 252 251 253 254 255
184 212 240 111 172 222 219 192 209 175 225 209 231 244 264 5 282 192 218 252 203 247 202 239 239 250 222 227 227 224 235 272 275 279 279 271 264 259 257 257 254 251 251 251
239 271 292 246 229 232 245 206 131 207 254 172 174 138 208 228 214 237 198 261 239 251 153 234 260 257 165 173 175 258 304 295 289 279 272 270 259 257 256 253 251 249 249 249
283 218 210 215 182 242 227 203 172 233 163 144 121 206 191 190 196 210 251 234 243 109 225 237 246 269 205 218 264 295 297 299 286 281 274 266 259 253 249 247 246 245 243 243
248 209 199 224 178 232 223 245 350 324 134 167 223 226 198 176 176 215 243 235 256 240 231 238 254 292 265 285 293 298 299 293 292 284 275 264 254 247 244 240 236 236 235 235
248 236 243 227 246 229 263 292 289 320 327 287 278 251 224 171 216 199 246 237 234 238 248 263 300 325 313 308 303 301 296 294 293 283 275 264 249 241 240 236 229 229 229 230
248 255 268 298 292 274 285 296 287 307 309 310 276 290 267 207 208 199 222 243 238 266 300 310 315 314 305 304 299 298 296 289 284 278 274 262 250 241 239 232 225 224 221 223
231 237 259 279 287 275 272 278 265 252 224 221 224 237 231 283 223 222 224 237 274 315 312 313 308 301 302 302 301 295 290 284 277 275 269 251 242 237 233 227 218 218 217 220
Height
1508 1504 1500 1495 1489 1484 1483 1481 1473 1477 1480 1480 1470 1460 1450 1457 1454 1458 1453 1451 1442 1437 1430 1437 1443 1444 1436 1446 1445 1450 1453 1457 1464 1460 1450 1461 1461 1459 1462 1477 1475 1496 1485 1473
1507 1503 1500 1495 1491 1486 1482 1479 1471 1476 1478 1467 1455 1454 1456 1459 1455 1453 1450 1448 1447 1442 1438 1442 1436 1433 1449 1449 1451 1452 1453 1461 1471 1463 1454 1452 1461 1457 1452 1447 1478 1539 1549 1486
1505 1502 1499 1496 1492 1488 1486 1483 1466 1470 1473 1467 1460 1447 1452 1455 1460 1456 1457 1451 1451 1447 1446 1438 1438 1437 1450 1455 1455 1461 1460 1452 1458 1464 1453 1444 1460 1459 1452 1451 1466 1476 1497 1462
1505 1501 1498 1495 1492 1488 1486 1480 1467 1472 1457 1460 1458 1455 1450 1449 1452 1459 1457 1453 1450 1445 1446 1442 1444 1442 1451 1459 1459 1461 1460 1458 1448 1444 1439 1436 1440 1448 1450 1454 1451 1467 1462 1458
1504 1501 1498 1495 1492 1489 1489 1486 1482 1476 1469 1466 1465 1461 1458 1453 1448 1455 1454 1455 1444 1447 1447 1442 1440 1442 1447 1451 1455 1457 1453 1459 1450 1452 1441 1440 1446 1438 1438 1444 1444 1447 1445 1447
1504 1500 1498 1495 1492 1490 1491 1490 1488 1485 1470 1465 1461 1455 1451 1451 1452 1457 1461 1456 1449 1452 1451 1460 1457 1452 1448 1445 1449 1448 1447 1449 1452 1459 1444 1446 1455 1443 1439 1438 1435 1445 1451 1440
1503 1501 1498 1496 1494 1492 1493 1493 1491 1484 1468 1465 1460 1460 1463 1463 1464 1463 1460 1466 1461 1467 1465 1463 1462 1459 1456 1454 1452 1448 1446 1446 1444 1453 1446 1469 1434 1425 1431 1437 1434 1432 1432 1433
1503 1500 1498 1496 1495 1493 1493 1493 1492 1486 1473 1465 1468 1470 1469 1468 1471 1474 1469 1466 1470 1469 1466 1461 1455 1451 1452 1450 1451 1449 1448 1446 1450 1457 1456 1440 1431 1428 1427 1431 1435 1430 1428 1431
1503 1500 1498 1496 1495 1493 1493 1494 1491 1491 1483 1470 1476 1475 1473 1469 1463 1463 1470 1471 1472 1471 1464 1455 1457 1452 1443 1447 1446 1444 1444 1446 1451 1450 1458 1460 1432 1423 1423 1424 1442 1426 1426 1430
1502 1499 1497 1496 1495 1494 1492 1495 1492 1491 1485 1477 1481 1476 1473 1473 1470 1463 1461 1467 1470 1469 1461 1455 1448 1444 1434 1438 1439 1441 1445 1445 1453 1454 1455 1439 1426 1423 1427 1451 1446 1432 1433 1434
1500 1498 1497 1495 1494 1494 1492 1495 1493 1493 1487 1480 1482 1482 1481 1479 1478 1469 1468 1473 1467 1462 1462 1452 1443 1439 1431 1432 1426 1427 1441 1450 1447 1449 1453 1458 1429 1430 1440 1437 1441 1443 1443 1445
1499 1497 1495 1494 1493 1493 1493 1495 1494 1491 1491 1483 1483 1482 1481 1482 1481 1480 1472 1468 1467 1461 1454 1450 1441 1437 1433 1431 1433 1427 1435 1429 1434 1433 1433 1431 1432 1432 1438 1440 1445 1448 1449 1450
1497 1495 1494 1493 1492 1492 1492 1494 1492 1491 1488 1480 1478 1476 1478 1479 1479 1481 1480 1472 1472 1472 1470 1462 1445 1443 1435 1437 1432 1430 1424 1429 1431 1435 1427 1428 1429 1439 1444 1447 1449 1451 1454 1454
1494 1493 1492 1492 1491 1491 1491 1493 1492 1492 1490 1482 1473 1476 1477 1477 1477 1478 1479 1477 1477 1477 1475 1469 1457 1450 1449 1446 1438 1432 1429 1428 1430 1435 1434 1435 1435 1444 1448 1451 1451 1453 1455 1456
1492 1491 1490 1490 1490 1490 1491 1491 1491 1491 1493 1484 1475 1475 1475 1476 1475 1476 1477 1478 1478 1475 1472 1467 1460 1457 1453 1451 1451 1442 1439 1437 1438 1439 1437 1437 1437 1442 1448 1452 1453 1454 1455 1456
1490 1489 1489 1489 1489 1489 1490 1490 1490 1490 1490 1490 1482 1476 1474 1474 1474 1474 1474 1474 1474 1474 1469 1464 1460 1459 1459 1454 1442 1441 1443 1442 1442 1443 1442 1439 1440 1442 1447 1450 1452 1453 1454 1455
1487 1487 1487 1487 1487 1488 1490 1489 1488 1489 1490 1489 1484 1473 1472 1474 1473 1471 1470 1472 1471 1471 1467 1465 1463 1460 1461 1455 1445 1443 1437 1438 1439 1443 1446 1441 1443 1443 1446 1447 1449 1450 1451 1452
1485 1485 1485 1486 1486 1486 1486 1486 1486 1488 1489 1488 1485 1472 1470 1474 1473 1472 1469 1468 1469 1469 1466 1462 1459 1457 1456 1445 1438 1439 1439 1440 1440 1440 1441 1440 1440 1441 1442 1445 1445 1445 1445 1447
1483 1483 1484 1485 1484 1485 1484 1484 1485 1487 1489 1486 1483 1472 1468 1472 1473 1474 1473 1473 1471 1469 1462 1459 1458 1447 1436 1432 1435 1437 1437 1437 1436 1436 1436 1436 1437 1437 1438 1440 1440 1439 1440 1441
1482 1482 1483 1482 1482 1482 1484 1484 1485 1485 1484 1484 1482 1474 1469 1471 1474 1474 1475 1475 1474 1470 1464 1460 1454 1435 1433 1429 1430 1434 1435 1435 1436 1434 1433 1432 1431 1431 1430 1430 1433 1433 1433 1435
1481 1481 1481 1481 1482 1483 1482 1482 1482 1483 1481 1479 1475 1472 1470 1474 1475 1473 1475 1471 1469 1464 1459 1455 1440 1419 1414 1418 1422 1426 1428 1429 1428 1427 1425 1424 1423 1423 1423 1423 1423 1425 1426 1426
1481 1481 1482 1482 1482 1482 1479 1473 1475 1476 1467 1467 1469 1473 1474 1474 1475 1475 1474 1471 1469 1458 1456 1455 1433 1404 1407 1414 1417 1418 1421 1422 1419 1418 1415 1414 1413 1412 1413 1414 1414 1416 1417 1418
1480 1481 1481 1481 1480 1478 1470 1466 1466 1466 1463 1466 1470 1471 1472 1473 1474 1474 1473 1468 1459 1454 1452 1437 1415 1408 1410 1414 1413 1412 1411 1410 1406 1404 1402 1400 1398 1399 1400 1401 1403 1406 1408 1409
1479 1479 1478 1476 1475 1474 1466 1463 1464 1465 1464 1466 1467 1468 1469 1469 1472 1470 1467 1461 1454 1447 1442 1428 1407 1406 1409 1409 1407 1403 1397 1395 1393 1388 1383 1381 1380 1380 1383 1385 1390 1394 1396 1400
1478 1477 1470 1465 1464 1465 1465 1465 1464 1463 1464 1464 1465 1463 1462 1463 1465 1464 1462 1453 1440 1426 1405 1398 1402 1404 1404 1401 1395 1390 1383 1378 1376 1373 1367 1363 1364 1364 1366 1370 1375 1380 1385 1389
1477 1474 1469 1466 1466 1464 1465 1466 1466 1466 1466 1466 1465 1460 1453 1450 1451 1453 1447 1438 1425 1410 1404 1404 1402 1399 1396 1389 1381 1373 1367 1362 1358 1356 1353 1350 1349 1351 1353 1358 1361 1365 1371 1376
1474 1471 1469 1468 1468 1467 1465 1465 1464 1465 1465 1463 1463 1459 1454 1450 1444 1439 1433 1422 1412 1411 1407 1403 1398 1392 1383 1374 1366 1357 1349 1343 1337 1335 1334 1337 1339 1342 1343 1344 1348 1355 1361 1365